EW9138 Weather Reports


Display with metric or nautical units.
time (UTC)temp
F
wind
direction
speed
MPH
gust
MPH
rain 1hr
in
rain 24hr
in
rain mn
in
humidity
%
barometer
mb
20260901071801 67 203 2.0 6.0 0.00 0.00 0.00 79 1021.5
20260901070802 67 245 2.0 3.0 0.00 0.00 0.00 79 1021.5
20260901070302 67 241 2.0 5.0 0.00 0.00 0.00 80 1021.5
20260901065802 67 237 2.0 5.0 0.00 0.00 0.00 80 1021.5
20260901065305 67 245 1.0 3.0 0.00 0.00 0.00 81 1021.5
20260901064801 66 282 1.0 5.0 0.00 0.00 0.00 82 1021.5
20260901064302 66 282 1.0 5.0 0.00 0.00 0.00 81 1021.4
20260901063801 66 193 1.0 3.0 0.00 0.00 0.00 82 1021.4
20260901063301 66 47 0.0 2.0 0.00 0.00 0.00 83 1021.4
20260901062802 66 46 1.0 2.0 0.00 0.00 0.00 83 1021.5
20260901061803 66 103 1.0 2.0 0.00 0.00 0.00 83 1021.5
20260901061302 65 335 1.0 2.0 0.00 0.00 0.00 82 1021.4
20260901060802 65 335 1.0 5.0 0.00 0.00 0.00 82 1021.4
20260901060301 65 334 1.0 5.0 0.00 0.00 0.00 83 1021.4
20260901055802 65 259 1.0 2.0 0.00 0.00 0.00 83 1021.3
20260901055306 65 259 0.0 2.0 0.00 0.00 0.00 83 1021.3
20260901054802 65 348 1.0 2.0 0.00 0.00 0.00 84 1021.3
20260901054302 65 348 1.0 2.0 0.00 0.00 0.00 84 1021.1
20260901053802 65 1 1.0 2.0 0.00 0.00 0.00 83 1021.1
20260901053302 65 9 1.0 3.0 0.00 0.00 0.00 83 1021.1
20260901052802 65 287 1.0 5.0 0.00 0.00 0.00 83 1020.9
20260901052306 65 297 1.0 5.0 0.00 0.00 0.00 83 1020.9
20260901051802 65 343 2.0 3.0 0.00 0.00 0.00 83 1020.9
20260901050802 65 352 2.0 3.0 0.00 0.00 0.00 82 1020.8
20260901050302 65 352 1.0 3.0 0.00 0.00 0.00 82 1020.8
20260901045802 65 352 1.0 3.0 0.00 0.00 0.00 82 1020.5
20260901045306 65 31 1.0 2.0 0.00 0.00 0.00 82 1020.5
20260901044302 65 39 2.0 5.0 0.00 0.00 0.00 82 1020.3
20260901043802 65 18 2.0 5.0 0.00 0.00 0.00 82 1020.3
20260901043302 65 13 1.0 5.0 0.00 0.00 0.00 81 1020.3
20260901042802 65 322 1.0 3.0 0.00 0.00 0.00 81 1020.2
20260901042305 65 340 1.0 3.0 0.00 0.00 0.00 81 1020.2
20260901041801 66 349 1.0 3.0 0.00 0.00 0.00 80 1020.2
20260901041302 66 306 0.0 2.0 0.00 0.00 0.00 81 1020.1
20260901040803 66 16 1.0 2.0 0.00 0.00 0.00 80 1020.1
20260901040302 66 16 2.0 2.0 0.00 0.00 0.00 80 1020.1
20260901035802 66 16 1.0 2.0 0.00 0.00 0.00 80 1020.0
20260901034802 66 45 1.0 2.0 0.00 0.00 0.00 80 1020.0
20260901034302 66 62 2.0 3.0 0.00 0.00 0.00 80 1019.9
20260901033303 66 353 2.0 3.0 0.00 0.00 0.00 80 1019.9
20260901032306 66 352 1.0 3.0 0.00 0.00 0.00 79 1019.9
20260901031802 66 352 1.0 3.0 0.00 0.00 0.00 79 1019.9
20260901031302 66 32 0.0 2.0 0.00 0.00 0.00 79 1019.9
20260901030302 67 34 1.0 2.0 0.00 0.00 0.00 79 1019.9
20260901025802 67 34 2.0 3.0 0.00 0.00 0.00 78 1020.0
20260901025305 67 34 2.0 3.0 0.00 0.00 0.00 78 1020.0
20260901024802 67 6 2.0 3.0 0.00 0.00 0.00 78 1020.0
20260901024302 67 6 1.0 3.0 0.00 0.00 0.00 78 1020.1
20260901023802 67 35 1.0 2.0 0.00 0.00 0.00 77 1020.1
20260901023302 67 19 1.0 5.0 0.00 0.00 0.00 77 1020.1
20260901022305 67 57 1.0 5.0 0.00 0.00 0.00 77 1020.0
20260901021802 67 81 1.0 5.0 0.00 0.00 0.00 77 1020.0
20260901021303 67 130 1.0 2.0 0.00 0.00 0.00 77 1020.1
20260901020802 67 130 1.0 3.0 0.00 0.00 0.00 77 1020.1
20260901020302 68 133 0.0 3.0 0.00 0.00 0.00 77 1020.1
20260901015802 68 137 1.0 3.0 0.00 0.00 0.00 76 1020.0
20260901015305 68 135 1.0 3.0 0.00 0.00 0.00 76 1020.0
20260901014802 68 135 1.0 3.0 0.00 0.00 0.00 76 1020.0
20260901014302 68 7 1.0 3.0 0.00 0.00 0.00 75 1019.9
20260901013802 68 7 2.0 3.0 0.00 0.00 0.00 74 1019.9
20260901013302 68 6 2.0 3.0 0.00 0.00 0.00 75 1019.9
20260901012803 68 7 2.0 3.0 0.00 0.00 0.00 75 1019.8
20260901012306 68 15 1.0 3.0 0.00 0.00 0.00 75 1019.8
20260901011302 69 41 1.0 2.0 0.00 0.00 0.00 77 1019.8
20260901010802 69 39 1.0 2.0 0.00 0.00 0.00 77 1019.8
20260901010302 69 39 1.0 2.0 0.00 0.00 0.00 75 1019.8
20260901005802 69 43 1.0 2.0 0.00 0.00 0.00 77 1019.7
20260901005306 69 97 0.0 2.0 0.00 0.00 0.00 77 1019.7
20260901003802 69 97 2.0 2.0 0.00 0.00 0.00 77 1019.6
20260901003302 69 97 2.0 5.0 0.00 0.00 0.00 75 1019.6
20260901002802 69 96 2.0 5.0 0.00 0.00 0.00 75 1019.3
20260901002305 69 10 1.0 3.0 0.00 0.00 0.00 75 1019.3
20260901001302 69 1 2.0 3.0 0.00 0.00 0.00 78 1019.1
20260901000802 69 2 2.0 3.0 0.00 0.00 0.00 78 1019.1
20260901000303 69 2 1.0 3.0 0.00 0.00 0.00 79 1019.1
20260831235802 69 2 2.0 3.0 0.00 0.00 0.00 80 1018.9
20260831234802 69 2 1.0 5.0 0.00 0.00 0.00 81 1018.9
20260831234302 69 356 0.0 3.0 0.00 0.00 0.00 81 1018.7
20260831233803 69 356 1.0 2.0 0.00 0.00 0.00 82 1018.7
20260831233302 69 356 1.0 5.0 0.00 0.00 0.00 82 1018.7
20260831232803 69 356 2.0 5.0 0.00 0.00 0.00 82 1018.4
20260831232305 69 342 2.0 5.0 0.00 0.00 0.00 81 1018.4
20260831231802 69 342 2.0 6.0 0.00 0.00 0.00 81 1018.4
20260831230302 70 12 1.0 3.0 0.00 0.00 0.00 79 1018.0
20260831225803 70 289 1.0 5.0 0.00 0.00 0.00 78 1017.7
20260831224802 70 0 0.0 3.0 0.00 0.00 0.00 78 1017.7
20260831224303 70 0 0.0 2.0 0.00 0.00 0.00 78 1017.5
20260831222802 70 0 1.0 2.0 0.00 0.00 0.00 77 1017.4
20260831222306 71 0 1.0 2.0 0.00 0.00 0.00 76 1017.4
20260831221802 71 358 1.0 3.0 0.00 0.00 0.00 76 1017.4
20260831220905 72 322 2.0 3.0 0.00 0.00 0.00 74 1017.3
20260831220304 72 333 2.0 5.0 0.00 0.00 0.00 73 1017.3
20260831215803 72 342 2.0 5.0 0.00 0.00 0.00 72 1017.2
20260831215306 72 7 2.0 5.0 0.00 0.00 0.00 73 1017.2
20260831214802 72 9 2.0 6.0 0.00 0.00 0.00 73 1017.2
20260831214302 72 1 2.0 6.0 0.00 0.00 0.00 73 1017.2
20260831213303 71 3 2.0 5.0 0.00 0.00 0.00 73 1017.2
20260831212802 72 357 2.0 6.0 0.00 0.00 0.00 74 1017.2
20260831212306 72 357 1.0 6.0 0.00 0.00 0.00 74 1017.2
20260831211303 72 12 0.0 3.0 0.00 0.00 0.00 72 1017.0
20260831210802 72 37 1.0 2.0 0.00 0.00 0.00 74 1017.0
20260831210303 72 37 1.0 2.0 0.00 0.00 0.00 72 1017.0
20260831205803 73 35 1.0 2.0 0.00 0.00 0.00 71 1016.8
20260831205305 73 41 0.0 2.0 0.00 0.00 0.00 70 1016.8
20260831204303 73 10 1.0 2.0 0.00 0.00 0.00 71 1016.5
20260831203803 74 10 2.0 5.0 0.00 0.00 0.00 69 1016.5
20260831203302 74 10 2.0 5.0 0.00 0.00 0.00 70 1016.5
20260831202306 74 347 2.0 6.0 0.00 0.00 0.00 69 1016.1
20260831201803 74 254 2.0 6.0 0.00 0.00 0.00 68 1016.1
20260831201303 74 19 1.0 5.0 0.00 0.00 0.00 67 1016.3
20260831200802 74 0 2.0 5.0 0.00 0.00 0.00 67 1016.3
20260831200303 74 6 2.0 6.0 0.00 0.00 0.00 68 1016.3
20260831195306 75 329 3.0 6.0 0.00 0.00 0.00 67 1016.0
20260831194802 75 358 3.0 6.0 0.00 0.00 0.00 65 1016.0
20260831194303 75 2 2.0 6.0 0.00 0.00 0.00 65 1015.8
20260831193803 75 1 2.0 6.0 0.00 0.00 0.00 65 1015.8
20260831193302 75 18 2.0 5.0 0.00 0.00 0.00 65 1015.8
20260831192305 76 24 2.0 5.0 0.00 0.00 0.00 65 1015.7
20260831191803 75 20 2.0 7.0 0.00 0.00 0.00 65 1015.7
20260831191303 75 355 2.0 7.0 0.00 0.00 0.00 65 1015.6
20260831190803 75 347 2.0 6.0 0.00 0.00 0.00 65 1015.6
20260831185802 76 23 2.0 3.0 0.00 0.00 0.00 67 1015.3
20260831184303 76 237 2.0 7.0 0.00 0.00 0.00 66 1015.0
20260831183803 77 17 3.0 7.0 0.00 0.00 0.00 66 1015.0
20260831183303 77 340 3.0 7.0 0.00 0.00 0.00 62 1015.0
20260831182803 77 3 3.0 7.0 0.00 0.00 0.00 62 1014.8
20260831182305 77 8 3.0 6.0 0.00 0.00 0.00 62 1014.8
20260831181804 77 12 3.0 6.0 0.00 0.00 0.00 62 1014.8
20260831180803 78 357 3.0 7.0 0.00 0.00 0.00 61 1015.0
20260831175803 78 354 3.0 6.0 0.00 0.00 0.00 60 1014.9
20260831175306 79 3 3.0 6.0 0.00 0.00 0.00 60 1014.9
20260831174804 79 28 3.0 6.0 0.00 0.00 0.00 60 1014.9
20260831174303 80 358 3.0 5.0 0.00 0.00 0.00 59 1014.7
20260831173804 80 3 3.0 7.0 0.00 0.00 0.00 59 1014.7
20260831173304 80 1 2.0 7.0 0.00 0.00 0.00 58 1014.7
20260831172804 81 358 3.0 5.0 0.00 0.00 0.00 58 1014.9
20260831172306 81 40 3.0 6.0 0.00 0.00 0.00 58 1014.9
20260831170803 83 0 2.0 5.0 0.00 0.00 0.00 55 1015.1
20260831170303 84 358 1.0 5.0 0.00 0.00 0.00 53 1015.1
20260831165305 86 349 2.0 3.0 0.00 0.00 0.00 51 1015.0
20260831164803 86 349 2.0 3.0 0.00 0.00 0.00 50 1015.0
20260831164303 87 167 1.0 3.0 0.00 0.00 0.00 50 1015.1
20260831163804 87 170 1.0 2.0 0.00 0.00 0.00 48 1015.1
20260831163303 87 169 1.0 2.0 0.00 0.00 0.00 51 1015.1
20260831162804 87 169 2.0 2.0 0.00 0.00 0.00 50 1015.1
20260831162306 87 171 2.0 5.0 0.00 0.00 0.00 52 1015.1
20260831161804 87 171 2.0 5.0 0.00 0.00 0.00 51 1015.1
20260831161304 88 174 1.0 5.0 0.00 0.00 0.00 48 1015.1
20260831160303 87 173 2.0 7.0 0.00 0.00 0.00 50 1015.1
20260831155306 88 148 2.0 7.0 0.00 0.00 0.00 50 1015.1
20260831154803 87 6 2.0 5.0 0.00 0.00 0.00 49 1015.1
20260831154303 87 6 2.0 5.0 0.00 0.00 0.00 48 1015.3
20260831153305 87 196 2.0 6.0 0.00 0.00 0.00 48 1015.3
20260831152804 87 71 2.0 5.0 0.00 0.00 0.00 49 1015.3
20260831152306 86 284 2.0 5.0 0.00 0.00 0.00 50 1015.3
20260831151803 85 72 2.0 5.0 0.00 0.00 0.00 52 1015.3
20260831151304 85 19 2.0 3.0 0.00 0.00 0.00 54 1015.3
20260831150804 85 3 2.0 5.0 0.00 0.00 0.00 54 1015.3
20260831150304 85 78 2.0 5.0 0.00 0.00 0.00 53 1015.3
20260831145803 86 30 2.0 7.0 0.00 0.00 0.00 50 1015.5
20260831144804 87 164 2.0 6.0 0.00 0.00 0.00 48 1015.5
20260831144304 87 284 2.0 5.0 0.00 0.00 0.00 47 1015.4
20260831143804 87 200 2.0 5.0 0.00 0.00 0.00 47 1015.4
20260831143303 88 14 2.0 5.0 0.00 0.00 0.00 48 1015.4
20260831142804 88 77 3.0 5.0 0.00 0.00 0.00 45 1015.4
20260831142306 88 192 3.0 7.0 0.00 0.00 0.00 46 1015.4
20260831141804 88 187 3.0 8.0 0.00 0.00 0.00 46 1015.4
20260831141303 88 210 2.0 8.0 0.00 0.00 0.00 45 1015.5
20260831140804 88 114 2.0 8.0 0.00 0.00 0.00 45 1015.5
20260831140305 88 3 2.0 7.0 0.00 0.00 0.00 45 1015.5
20260831135804 88 170 2.0 7.0 0.00 0.00 0.00 45 1015.4
20260831135306 88 271 2.0 7.0 0.00 0.00 0.00 44 1015.4
20260831134803 88 153 2.0 7.0 0.00 0.00 0.00 44 1015.4
20260831134305 87 188 2.0 7.0 0.00 0.00 0.00 47 1015.6
20260831133804 87 186 2.0 8.0 0.00 0.00 0.00 45 1015.6
20260831133303 87 350 2.0 8.0 0.00 0.00 0.00 45 1015.6
20260831132306 87 90 3.0 5.0 0.00 0.00 0.00 47 1015.7
20260831131804 87 327 3.0 8.0 0.00 0.00 0.00 46 1015.7
20260831131304 87 349 2.0 8.0 0.00 0.00 0.00 46 1015.7
20260831130803 87 345 2.0 7.0 0.00 0.00 0.00 46 1015.7
20260831130303 87 260 2.0 7.0 0.00 0.00 0.00 46 1015.7
20260831125803 87 4 2.0 7.0 0.00 0.00 0.00 46 1015.9
20260831125306 87 17 2.0 6.0 0.00 0.00 0.00 45 1015.9
20260831124804 87 184 2.0 6.0 0.00 0.00 0.00 46 1015.9
20260831123803 87 188 2.0 7.0 0.00 0.00 0.00 46 1016.0
20260831123303 87 6 2.0 7.0 0.00 0.00 0.00 46 1016.0
20260831122804 87 193 2.0 6.0 0.00 0.00 0.00 47 1016.0
20260831121803 86 195 2.0 7.0 0.00 0.00 0.00 49 1016.0
20260831121304 86 232 2.0 7.0 0.00 0.00 0.00 48 1016.1
20260831120803 85 178 2.0 5.0 0.00 0.00 0.00 50 1016.1
20260831120304 85 169 2.0 5.0 0.00 0.00 0.00 52 1016.1
20260831115804 84 194 2.0 5.0 0.00 0.00 0.00 51 1016.2
20260831115306 83 195 2.0 5.0 0.00 0.00 0.00 51 1016.2
20260831114804 83 195 2.0 5.0 0.00 0.00 0.00 53 1016.2
20260831114303 83 191 2.0 5.0 0.00 0.00 0.00 51 1016.4
20260831113803 82 191 2.0 5.0 0.00 0.00 0.00 51 1016.4
20260831113303 82 173 2.0 5.0 0.00 0.00 0.00 54 1016.4
20260831112803 82 166 2.0 5.0 0.00 0.00 0.00 53 1016.6
20260831112307 81 172 2.0 5.0 0.00 0.00 0.00 54 1016.6
20260831110804 80 245 2.0 5.0 0.00 0.00 0.00 55 1016.6
20260831110303 80 194 2.0 5.0 0.00 0.00 0.00 55 1016.6
20260831105804 80 193 2.0 3.0 0.00 0.00 0.00 56 1016.8
20260831105306 80 193 2.0 3.0 0.00 0.00 0.00 57 1016.8
20260831104803 79 193 2.0 3.0 0.00 0.00 0.00 59 1016.8
20260831104304 79 193 2.0 5.0 0.00 0.00 0.00 59 1016.8
20260831103304 78 193 2.0 5.0 0.00 0.00 0.00 59 1016.8
20260831102804 78 193 3.0 5.0 0.00 0.00 0.00 60 1016.9
20260831102306 78 191 3.0 6.0 0.00 0.00 0.00 61 1016.9
20260831101804 77 190 3.0 6.0 0.00 0.00 0.00 61 1016.9
20260831101304 77 196 3.0 6.0 0.00 0.00 0.00 62 1017.1
20260831100804 77 192 3.0 6.0 0.00 0.00 0.00 63 1017.1
20260831100304 76 189 3.0 6.0 0.00 0.00 0.00 63 1017.1
20260831095804 76 190 3.0 7.0 0.00 0.00 0.00 64 1017.2
20260831095306 76 191 2.0 7.0 0.00 0.00 0.00 64 1017.2
20260831094804 76 198 2.0 5.0 0.00 0.00 0.00 66 1017.2
20260831094304 75 189 2.0 5.0 0.00 0.00 0.00 66 1017.4
20260831093804 75 192 2.0 5.0 0.00 0.00 0.00 67 1017.4
20260831093304 75 208 2.0 5.0 0.00 0.00 0.00 67 1017.4
20260831092805 75 181 2.0 5.0 0.00 0.00 0.00 68 1017.4
20260831091804 74 179 2.0 5.0 0.00 0.00 0.00 68 1017.4
20260831091304 74 274 2.0 5.0 0.00 0.00 0.00 69 1017.6
20260831090804 73 204 2.0 5.0 0.00 0.00 0.00 69 1017.6
20260831090304 73 337 2.0 2.0 0.00 0.00 0.00 70 1017.6
20260831085803 72 338 2.0 3.0 0.00 0.00 0.00 71 1017.6
20260831085306 72 337 2.0 5.0 0.00 0.00 0.00 72 1017.6
20260831084805 71 352 2.0 5.0 0.00 0.00 0.00 74 1017.6
20260831083804 70 188 2.0 3.0 0.00 0.00 0.00 75 1017.6
20260831083304 69 188 2.0 3.0 0.00 0.00 0.00 75 1017.6
20260831082804 69 196 2.0 2.0 0.00 0.00 0.00 76 1017.6
20260831082306 69 195 2.0 3.0 0.00 0.00 0.00 77 1017.6
20260831081303 68 195 2.0 3.0 0.00 0.00 0.00 77 1017.6
20260831080804 68 326 2.0 5.0 0.00 0.00 0.00 77 1017.6
20260831080305 67 2 2.0 5.0 0.00 0.00 0.00 79 1017.6
20260831075804 67 7 2.0 5.0 0.00 0.00 0.00 79 1017.6
20260831075306 67 5 2.0 3.0 0.00 0.00 0.00 81 1017.6
20260831074803 66 6 2.0 5.0 0.00 0.00 0.00 82 1017.6
20260831074303 66 6 1.0 5.0 0.00 0.00 0.00 82 1017.6
20260831073803 65 8 1.0 5.0 0.00 0.00 0.00 84 1017.6
20260831073303 65 41 1.0 3.0 0.00 0.00 0.00 86 1017.6
20260831072804 65 13 1.0 3.0 0.00 0.00 0.00 86 1017.7
20260831072306 64 14 0.0 3.0 0.00 0.00 0.00 86 1017.7